,,Stat5,,Stat1,,Stat2,,Stat3,,Stat4,,Wind1,,Wind1,
time,status,PA1M_AVG,status,PR1M_SUM,status,RH1M_AVG,status,SR1M_AVG,status,TA1M_AVG,status,W1dAve1m,status,W1sAve1m,
2001-01-14, 00:00:01,VALID,917.454,VALID,0,VALID,97.4367,VALID,0,VALID,19.4455,VALID,86,VALID,0.626402,
2001-01-14, 00:01:00,VALID,917.453,VALID,0,VALID,97.4609,VALID,0,VALID,19.4299,VALID,86,VALID,0.449678,
2001-01-14, 00:02:00,VALID,917.441,VALID,0,VALID,97.5562,VALID,0.0169808,VALID,19.407,VALID,92,VALID,0.47973,
2001-01-14, 00:03:00,VALID,917.432,VALID,0,VALID,97.6249,VALID,0,VALID,19.41,VALID,95,VALID,0.46895,
2001-01-14, 00:04:00,VALID,917.422,VALID,0,VALID,97.6796,VALID,0,VALID,19.4132,VALID,98,VALID,0.273828,
2001-01-14, 00:05:00,VALID,917.425,VALID,0,VALID,97.7126,VALID,-0.0169808,VALID,19.407,VALID,103,VALID,0.232996,
2001-01-14, 00:06:00,VALID,917.421,VALID,0,VALID,97.7355,VALID,0,VALID,19.4102,VALID,100,VALID,0.212023,
2001-01-14, 00:07:00,VALID,917.427,VALID,0,VALID,97.7559,VALID,0,VALID,19.4174,VALID,99,VALID,0,
2001-01-14, 00:08:00,VALID,917.415,VALID,0,VALID,97.7889,VALID,0.0169808,VALID,19.4132,VALID,105,VALID,0.367788,
2001-01-14, 00:09:00,VALID,917.409,VALID,0,VALID,97.8512,VALID,0,VALID,19.4463,VALID,105,VALID,0.484575,
2001-01-14, 00:10:00,VALID,917.413,VALID,0,VALID,97.897,VALID,0,VALID,19.4587,VALID,120,VALID,0.194661,
2001-01-14, 00:11:00,VALID,917.424,VALID,0,VALID,97.9059,VALID,0,VALID,19.4718,VALID,112,VALID,0.395148,
2001-01-14, 00:12:00,VALID,917.439,VALID,0,VALID,97.8347,VALID,0.0169808,VALID,19.4621,VALID,98,VALID,0.485377,
2001-01-14, 00:13:00,VALID,917.439,VALID,0,VALID,97.7877,VALID,0,VALID,19.4651,VALID,99,VALID,0.478207,
2001-01-14, 00:14:00,VALID,917.438,VALID,0,VALID,97.7699,VALID,0.0169808,VALID,19.4485,VALID,92,VALID,0.636402,
2001-01-14, 00:15:00,VALID,917.424,VALID,0,VALID,97.8042,VALID,0,VALID,19.4552,VALID,102,VALID,0.501056,
2001-01-14, 00:16:00,VALID,917.434,VALID,0,VALID,97.8322,VALID,0.0169808,VALID,19.4718,VALID,134,VALID,0.115625,
2001-01-14, 00:17:00,VALID,917.423,VALID,0,VALID,97.8589,VALID,0,VALID,19.4882,VALID,290,VALID,0.077908,
2001-01-14, 00:18:00,VALID,917.396,VALID,0,VALID,97.8754,VALID,0,VALID,19.494,VALID,272,VALID,0.0182292,
2001-01-14, 00:19:00,VALID,917.369,VALID,0,VALID,97.8894,VALID,0.0339617,VALID,19.5101,VALID,271,VALID,0,
2001-01-14, 00:20:00,VALID,917.35,VALID,0,VALID,97.9021,VALID,0,VALID,19.5332,VALID,270,VALID,0.115954,
2001-01-14, 00:21:00,VALID,917.351,VALID,0,VALID,97.85,VALID,0.0679233,VALID,19.5355,VALID,274,VALID,0.0381696,
2001-01-14, 00:22:00,VALID,917.335,VALID,0,VALID,97.8271,VALID,0.0679233,VALID,19.5355,VALID,274,VALID,0,
2001-01-14, 00:23:00,VALID,917.328,VALID,0,VALID,97.8271,VALID,0.101885,VALID,19.5481,VALID,273,VALID,0.0581174,
2001-01-14, 00:24:00,VALID,917.325,VALID,0,VALID,97.8284,VALID,0.0849042,VALID,19.5613,VALID,158,VALID,0.207813,
2001-01-14, 00:25:00,VALID,917.321,VALID,0,VALID,97.7737,VALID,0.0679233,VALID,19.5549,VALID,127,VALID,0,
2001-01-14, 00:26:00,VALID,917.317,VALID,0,VALID,97.6745,VALID,0.0509425,VALID,19.5648,VALID,202,VALID,0,
2001-01-14, 00:27:00,VALID,917.305,VALID,0,VALID,97.6236,VALID,0.0849042,VALID,19.5645,VALID,223,VALID,0,
2001-01-14, 00:28:00,VALID,917.29,VALID,0,VALID,97.5944,VALID,0.0679233,VALID,19.5645,VALID,231,VALID,0,
2001-01-14, 00:29:00,VALID,917.296,VALID,0,VALID,97.5486,VALID,0.0849042,VALID,19.568,VALID,235,VALID,0,
2001-01-14, 00:30:00,VALID,917.292,VALID,0,VALID,97.5321,VALID,0.0849042,VALID,19.5514,VALID,301,VALID,0,
2001-01-14, 00:31:00,VALID,917.29,VALID,0,VALID,97.541,VALID,0.0849042,VALID,19.5481,VALID,304,VALID,0,
2001-01-14, 00:32:00,VALID,917.255,VALID,0,VALID,97.5384,VALID,0.101885,VALID,19.5616,VALID,46,VALID,0.361903,
2001-01-14, 00:33:00,VALID,917.236,VALID,0,VALID,97.4189,VALID,0.0679233,VALID,19.5486,VALID,82,VALID,0.38742,
2001-01-14, 00:34:00,VALID,917.23,VALID,0,VALID,97.3846,VALID,0.0679233,VALID,19.5357,VALID,82,VALID,0.0132212,
2001-01-14, 00:35:00,VALID,917.214,VALID,0,VALID,97.41,VALID,0.0849042,VALID,19.5188,VALID,82,VALID,0,
2001-01-14, 00:36:00,VALID,917.198,VALID,0,VALID,97.4278,VALID,-0.0169808,VALID,19.5203,VALID,91,VALID,0,
2001-01-14, 00:37:00,VALID,917.192,VALID,0,VALID,97.4405,VALID,0,VALID,19.5273,VALID,95,VALID,0.107686,
2001-01-14, 00:38:00,VALID,917.184,VALID,0,VALID,97.4469,VALID,0,VALID,19.5203,VALID,94,VALID,0.266059,
2001-01-14, 00:39:00,VALID,917.191,VALID,0,VALID,97.4494,VALID,-0.0169808,VALID,19.5166,VALID,94,VALID,0.397035,
2001-01-14, 00:40:00,VALID,917.211,VALID,0,VALID,97.4583,VALID,0,VALID,19.5265,VALID,95,VALID,0.256445,
2001-01-14, 00:41:00,VALID,917.221,VALID,0,VALID,97.4138,VALID,0,VALID,19.5205,VALID,95,VALID,0.409255,
2001-01-14, 00:42:00,VALID,917.213,VALID,0,VALID,97.4164,VALID,0,VALID,19.5009,VALID,103,VALID,0.517027,
2001-01-14, 00:43:00,VALID,917.191,VALID,0,VALID,97.471,VALID,0,VALID,19.4979,VALID,102,VALID,0.528646,
2001-01-14, 00:44:00,VALID,917.17,VALID,0,VALID,97.5664,VALID,-0.0169808,VALID,19.5049,VALID,103,VALID,0.389186,
2001-01-14, 00:45:00,VALID,917.185,VALID,0,VALID,97.6313,VALID,0,VALID,19.5176,VALID,100,VALID,0.285979,
2001-01-14, 00:46:00,VALID,917.195,VALID,0,VALID,97.6389,VALID,-0.0169808,VALID,19.5168,VALID,100,VALID,0.109375,
2001-01-14, 00:47:00,VALID,917.198,VALID,0,VALID,97.6224,VALID,0,VALID,19.5337,VALID,101,VALID,0.587627,
2001-01-14, 00:48:00,VALID,917.208,VALID,0,VALID,97.6084,VALID,0,VALID,19.5203,VALID,103,VALID,0.742821,
2001-01-14, 00:49:00,VALID,917.197,VALID,0,VALID,97.6554,VALID,-0.0339617,VALID,19.5305,VALID,107,VALID,0.637946,
2001-01-14, 00:50:00,VALID,917.188,VALID,0,VALID,97.7165,VALID,0,VALID,19.5432,VALID,105,VALID,0.592014,
2001-01-14, 00:51:00,VALID,917.19,VALID,0,VALID,97.691,VALID,0,VALID,19.5561,VALID,99,VALID,0.90605,
2001-01-14, 00:52:00,VALID,917.182,VALID,0,VALID,97.6363,VALID,0,VALID,19.5397,VALID,97,VALID,0.926398,
2001-01-14, 00:53:00,VALID,917.182,VALID,0,VALID,97.6554,VALID,0,VALID,19.5558,VALID,100,VALID,0.723273,
2001-01-14, 00:54:00,VALID,917.166,VALID,0,VALID,97.658,VALID,0,VALID,19.5588,VALID,96,VALID,0.339063,
2001-01-14, 00:55:00,VALID,917.148,VALID,0,VALID,97.6491,VALID,-0.0169808,VALID,19.5655,VALID,96,VALID,0.602163,
2001-01-14, 00:56:00,VALID,917.142,VALID,0,VALID,97.6325,VALID,-0.0169808,VALID,19.5852,VALID,94,VALID,0.834223,
2001-01-14, 00:57:00,VALID,917.14,VALID,0,VALID,97.616,VALID,0,VALID,19.5814,VALID,104,VALID,0.811328,
2001-01-14, 00:58:00,VALID,917.125,VALID,0,VALID,97.6134,VALID,0,VALID,19.5914,VALID,97,VALID,0.853082,
2001-01-14, 00:59:00,VALID,917.114,VALID,0,VALID,97.5677,VALID,0,VALID,19.5986,VALID,103,VALID,0.434462,
2001-01-14, 01:00:00,VALID,917.104,VALID,0,VALID,97.5473,VALID,-0.0169808,VALID,19.5852,VALID,97,VALID,0.558929,
2001-01-14, 01:01:00,VALID,917.079,VALID,0,VALID,97.5435,VALID,0,VALID,19.5847,VALID,100,VALID,0.990954,
2001-01-14, 01:02:00,VALID,917.054,VALID,0,VALID,97.56,VALID,0,VALID,19.5981,VALID,100,VALID,0.75549,
2001-01-14, 01:03:00,VALID,917.049,VALID,0,VALID,97.5702,VALID,0,VALID,19.6075,VALID,95,VALID,0.71254,
2001-01-14, 01:04:00,VALID,917.04,VALID,0,VALID,97.527,VALID,0,VALID,19.5906,VALID,87,VALID,0.470117,
2001-01-14, 01:05:00,VALID,917.036,VALID,0,VALID,97.5054,VALID,-0.0169808,VALID,19.6078,VALID,83,VALID,0.0487132,
2001-01-14, 01:06:00,VALID,917.025,VALID,0,VALID,97.485,VALID,0,VALID,19.6013,VALID,83,VALID,0,
2001-01-14, 01:07:00,VALID,917.022,VALID,0,VALID,97.471,VALID,-0.0339617,VALID,19.6145,VALID,83,VALID,0.0340545,
2001-01-14, 01:08:00,VALID,916.994,VALID,0,VALID,97.4799,VALID,-0.0339617,VALID,19.6142,VALID,97,VALID,0.475361,
2001-01-14, 01:09:00,VALID,916.975,VALID,0,VALID,97.4507,VALID,-0.0509425,VALID,19.6279,VALID,100,VALID,0.512747,
2001-01-14, 01:10:00,VALID,916.949,VALID,0,VALID,97.4329,VALID,0,VALID,19.6212,VALID,93,VALID,0.577069,
2001-01-14, 01:11:00,VALID,916.941,VALID,0,VALID,97.4049,VALID,0,VALID,19.6237,VALID,98,VALID,0.634115,
2001-01-14, 01:12:00,VALID,916.949,VALID,0,VALID,97.3693,VALID,0,VALID,19.614,VALID,99,VALID,0.631811,
2001-01-14, 01:13:00,VALID,916.934,VALID,0,VALID,97.3922,VALID,-0.0169808,VALID,19.6242,VALID,97,VALID,0.579687,
2001-01-14, 01:14:00,VALID,916.903,VALID,0,VALID,97.4036,VALID,0,VALID,19.6204,VALID,99,VALID,0.907853,
2001-01-14, 01:15:00,VALID,916.868,VALID,0,VALID,97.3846,VALID,-0.0339617,VALID,19.6306,VALID,101,VALID,1.0609,
2001-01-14, 01:16:00,VALID,916.861,VALID,0,VALID,97.3337,VALID,-0.0169808,VALID,19.6204,VALID,98,VALID,0.789931,
2001-01-14, 01:17:00,VALID,916.87,VALID,0,VALID,97.2638,VALID,-0.0169808,VALID,19.6135,VALID,87,VALID,0.686883,
2001-01-14, 01:18:00,VALID,916.856,VALID,0,VALID,97.2205,VALID,-0.0339617,VALID,19.5819,VALID,64,VALID,0.516653,
2001-01-14, 01:19:00,VALID,916.85,VALID,0,VALID,97.2587,VALID,-0.0169808,VALID,19.5653,VALID,83,VALID,0.384252,
2001-01-14, 01:20:00,VALID,916.862,VALID,0,VALID,97.3248,VALID,-0.0169808,VALID,19.5623,VALID,85,VALID,0.639358,
2001-01-14, 01:21:00,VALID,916.839,VALID,0,VALID,97.3095,VALID,0.0169808,VALID,19.5625,VALID,83,VALID,0.986909,
2001-01-14, 01:22:00,VALID,916.818,VALID,0,VALID,97.368,VALID,0,VALID,19.5394,VALID,83,VALID,0.757589,
2001-01-14, 01:23:00,VALID,916.804,VALID,0,VALID,97.4113,VALID,0.0339617,VALID,19.5295,VALID,86,VALID,0.560113,
2001-01-14, 01:24:00,VALID,916.786,VALID,0,VALID,97.4698,VALID,0.0169808,VALID,19.5298,VALID,86,VALID,0.426883,
2001-01-14, 01:25:00,VALID,916.767,VALID,0,VALID,97.5537,VALID,0,VALID,19.5367,VALID,96,VALID,0.441201,
2001-01-14, 01:26:00,VALID,916.764,VALID,0,VALID,97.6007,VALID,0,VALID,19.5464,VALID,87,VALID,0.0699013,
2001-01-14, 01:27:00,VALID,916.77,VALID,0,VALID,97.6122,VALID,-0.0169808,VALID,19.5461,VALID,82,VALID,0.265848,
2001-01-14, 01:28:00,VALID,916.762,VALID,0,VALID,97.5956,VALID,0.0169808,VALID,19.5464,VALID,95,VALID,0.530048,
2001-01-14, 01:29:00,VALID,916.75,VALID,0,VALID,97.6325,VALID,0,VALID,19.5399,VALID,98,VALID,0.611281,
2001-01-14, 01:30:00,VALID,916.734,VALID,0,VALID,97.6236,VALID,0.0169808,VALID,19.5494,VALID,100,VALID,0.645312,
2001-01-14, 01:31:00,VALID,916.708,VALID,0,VALID,97.5791,VALID,0.0169808,VALID,19.533,VALID,67,VALID,0.678819,
2001-01-14, 01:32:00,VALID,916.684,VALID,0,VALID,97.5791,VALID,0,VALID,19.5201,VALID,67,VALID,0.427951,
2001-01-14, 01:33:00,VALID,916.654,VALID,0,VALID,97.6274,VALID,0.0169808,VALID,19.5037,VALID,81,VALID,0.714955,
2001-01-14, 01:34:00,VALID,916.619,VALID,0,VALID,97.6465,VALID,-0.0169808,VALID,19.5141,VALID,64,VALID,1.17455,
2001-01-14, 01:35:00,VALID,916.592,VALID,0,VALID,97.7012,VALID,0,VALID,19.4972,VALID,83,VALID,0.819257,
2001-01-14, 01:36:00,VALID,916.568,VALID,0,VALID,97.7215,VALID,-0.0339617,VALID,19.5151,VALID,48,VALID,0.238181,
2001-01-14, 01:37:00,VALID,916.552,VALID,0,VALID,97.7457,VALID,-0.0679233,VALID,19.5118,VALID,80,VALID,0.574219,
2001-01-14, 01:38:00,VALID,916.54,VALID,0,VALID,97.7406,VALID,-0.0679233,VALID,19.5014,VALID,77,VALID,0.516314,
2001-01-14, 01:39:00,VALID,916.52,VALID,0,VALID,97.7533,VALID,-0.101885,VALID,19.5019,VALID,99,VALID,0.523037,
2001-01-14, 01:40:00,VALID,916.505,VALID,0,VALID,97.7597,VALID,-0.0849042,VALID,19.5248,VALID,104,VALID,0.471755,
2001-01-14, 01:41:00,VALID,916.487,VALID,0,VALID,97.7724,VALID,-0.0509425,VALID,19.5317,VALID,101,VALID,0.116987,
2001-01-14, 01:42:00,VALID,916.468,VALID,0,VALID,97.7953,VALID,-0.0849042,VALID,19.5307,VALID,103,VALID,0,
2001-01-14, 01:43:00,VALID,916.434,VALID,0,VALID,97.7851,VALID,-0.101885,VALID,19.5441,VALID,135,VALID,0.370988,
2001-01-14, 01:44:00,VALID,916.406,VALID,0,VALID,97.7699,VALID,-0.101885,VALID,19.534,VALID,100,VALID,0.285807,
2001-01-14, 01:45:00,VALID,916.389,VALID,0,VALID,97.8156,VALID,-0.101885,VALID,19.5506,VALID,100,VALID,0,
2001-01-14, 01:46:00,VALID,916.385,VALID,0,VALID,97.8042,VALID,-0.0849042,VALID,19.5566,VALID,100,VALID,0,
2001-01-14, 01:47:00,VALID,916.37,VALID,0,VALID,97.7851,VALID,-0.0849042,VALID,19.567,VALID,100,VALID,0,
2001-01-14, 01:48:00,VALID,916.367,VALID,0,VALID,97.7711,VALID,-0.0679233,VALID,19.5829,VALID,102,VALID,0,
2001-01-14, 01:49:00,VALID,916.367,VALID,0,VALID,97.7304,VALID,-0.101885,VALID,19.5633,VALID,102,VALID,0,
2001-01-14, 01:50:00,VALID,916.371,VALID,0,VALID,97.7444,VALID,-0.0849042,VALID,19.5732,VALID,100,VALID,0.0729852,
2001-01-14, 01:51:00,VALID,916.377,VALID,0,VALID,97.7368,VALID,-0.101885,VALID,19.5894,VALID,99,VALID,0.479441,
2001-01-14, 01:52:00,VALID,916.372,VALID,0,VALID,97.7114,VALID,-0.101885,VALID,19.5896,VALID,100,VALID,0.201686,
2001-01-14, 01:53:00,VALID,916.378,VALID,0,VALID,97.7152,VALID,-0.101885,VALID,19.6093,VALID,105,VALID,0.0485642,
2001-01-14, 01:54:00,VALID,916.377,VALID,0,VALID,97.7012,VALID,-0.101885,VALID,19.5988,VALID,104,VALID,0,
2001-01-14, 01:55:00,VALID,916.37,VALID,0,VALID,97.6567,VALID,-0.101885,VALID,19.5924,VALID,104,VALID,0,
2001-01-14, 01:56:00,VALID,916.354,VALID,0,VALID,97.658,VALID,-0.0849042,VALID,19.6125,VALID,104,VALID,0,
2001-01-14, 01:57:00,VALID,916.343,VALID,0,VALID,97.6745,VALID,-0.101885,VALID,19.5958,VALID,103,VALID,0,
2001-01-14, 01:58:00,VALID,916.318,VALID,0,VALID,97.6211,VALID,-0.101885,VALID,19.5963,VALID,8,VALID,0.306332,
2001-01-14, 01:59:00,VALID,916.313,VALID,0,VALID,97.5918,VALID,-0.101885,VALID,19.567,VALID,88,VALID,0.16324,
2001-01-14, 02:00:00,VALID,916.322,VALID,0,VALID,97.6338,VALID,-0.118866,VALID,19.5638,VALID,96,VALID,0,
2001-01-14, 02:01:00,VALID,916.313,VALID,0,VALID,97.6605,VALID,-0.118866,VALID,19.5769,VALID,96,VALID,0,
2001-01-14, 02:02:00,VALID,916.295,VALID,0,VALID,97.6236,VALID,-0.101885,VALID,19.564,VALID,96,VALID,0,
2001-01-14, 02:03:00,VALID,916.299,VALID,0,VALID,97.6491,VALID,-0.101885,VALID,19.564,VALID,96,VALID,0,
2001-01-14, 02:04:00,VALID,916.286,VALID,0,VALID,97.6936,VALID,-0.101885,VALID,19.5504,VALID,96,VALID,0,
2001-01-14, 02:05:00,VALID,916.298,VALID,0,VALID,97.7063,VALID,-0.101885,VALID,19.5608,VALID,96,VALID,0,
2001-01-14, 02:06:00,VALID,916.325,VALID,0,VALID,97.7177,VALID,0.0169808,VALID,19.5588,VALID,96,VALID,0,
2001-01-14, 02:07:00,VALID,916.333,VALID,0,VALID,97.7343,VALID,0.0169808,VALID,19.5755,VALID,97,VALID,0.14597,
2001-01-14, 02:08:00,VALID,916.327,VALID,0,VALID,97.7076,VALID,-0.0169808,VALID,19.5789,VALID,93,VALID,0.103674,
2001-01-14, 02:09:00,VALID,916.308,VALID,0,VALID,97.7292,VALID,0,VALID,19.5653,VALID,86,VALID,0.359175,
2001-01-14, 02:10:00,VALID,916.326,VALID,0,VALID,97.7571,VALID,0,VALID,19.5817,VALID,88,VALID,0.30293,
2001-01-14, 02:11:00,VALID,916.323,VALID,0,VALID,97.7749,VALID,0.0169808,VALID,19.5782,VALID,88,VALID,0.0569853,
2001-01-14, 02:12:00,VALID,916.325,VALID,0,VALID,97.7266,VALID,0,VALID,19.5688,VALID,88,VALID,0.0272436,
2001-01-14, 02:13:00,VALID,916.312,VALID,0,VALID,97.7254,VALID,0,VALID,19.5717,VALID,103,VALID,0.56851,
2001-01-14, 02:14:00,VALID,916.296,VALID,0,VALID,97.7292,VALID,0,VALID,19.5683,VALID,88,VALID,0.904447,
2001-01-14, 02:15:00,VALID,916.269,VALID,0,VALID,97.7063,VALID,0,VALID,19.5489,VALID,89,VALID,0.969161,
2001-01-14, 02:16:00,VALID,916.275,VALID,0,VALID,97.6821,VALID,0,VALID,19.5327,VALID,93,VALID,0.822002,
2001-01-14, 02:17:00,VALID,916.268,VALID,0,VALID,97.7037,VALID,0,VALID,19.5228,VALID,101,VALID,0.665365,
2001-01-14, 02:18:00,VALID,916.268,VALID,0,VALID,97.7203,VALID,0,VALID,19.5367,VALID,107,VALID,0.304287,
2001-01-14, 02:19:00,VALID,916.274,VALID,0,VALID,97.7152,VALID,0,VALID,19.5235,VALID,107,VALID,0.0771484,
2001-01-14, 02:20:00,VALID,916.262,VALID,0,VALID,97.7228,VALID,0,VALID,19.5235,VALID,107,VALID,0.0246394,
2001-01-14, 02:21:00,VALID,916.249,VALID,0,VALID,97.6961,VALID,0,VALID,19.5235,VALID,106,VALID,0.161458,
2001-01-14, 02:22:00,VALID,916.241,VALID,0,VALID,97.7101,VALID,0,VALID,19.5042,VALID,106,VALID,0,
2001-01-14, 02:23:00,VALID,916.244,VALID,0,VALID,97.7241,VALID,0,VALID,19.5002,VALID,106,VALID,0,
2001-01-14, 02:24:00,VALID,916.235,VALID,0,VALID,97.7355,VALID,0,VALID,19.5007,VALID,106,VALID,0,
2001-01-14, 02:25:00,VALID,916.231,VALID,0,VALID,97.7406,VALID,0,VALID,19.4912,VALID,149,VALID,0,
2001-01-14, 02:26:00,VALID,916.219,VALID,0,VALID,97.7889,VALID,0,VALID,19.5012,VALID,159,VALID,0,
2001-01-14, 02:27:00,VALID,916.211,VALID,0,VALID,97.8067,VALID,-0.0169808,VALID,19.491,VALID,159,VALID,0,
2001-01-14, 02:28:00,VALID,916.199,VALID,0,VALID,97.8156,VALID,0,VALID,19.4786,VALID,132,VALID,0.210268,
2001-01-14, 02:29:00,VALID,916.19,VALID,0,VALID,97.8551,VALID,0,VALID,19.485,VALID,109,VALID,0.343099,
2001-01-14, 02:30:00,VALID,916.182,VALID,0,VALID,97.8856,VALID,-0.0169808,VALID,19.4818,VALID,109,VALID,0.138622,
2001-01-14, 02:31:00,VALID,916.151,VALID,0,VALID,97.8856,VALID,0,VALID,19.482,VALID,110,VALID,0.221423,
2001-01-14, 02:32:00,VALID,916.135,VALID,0,VALID,97.8919,VALID,0,VALID,19.4718,VALID,112,VALID,0.0485197,
2001-01-14, 02:33:00,VALID,916.13,VALID,0,VALID,97.8767,VALID,0,VALID,19.4624,VALID,112,VALID,0.167411,
2001-01-14, 02:34:00,VALID,916.114,VALID,0,VALID,97.8601,VALID,-0.0169808,VALID,19.4592,VALID,112,VALID,0.140625,
2001-01-14, 02:35:00,VALID,916.103,VALID,0,VALID,97.8614,VALID,0,VALID,19.4495,VALID,112,VALID,0,
2001-01-14, 02:36:00,VALID,916.076,VALID,0,VALID,97.8576,VALID,0,VALID,19.4363,VALID,112,VALID,0,
2001-01-14, 02:37:00,VALID,916.061,VALID,0,VALID,97.8678,VALID,0,VALID,19.4236,VALID,112,VALID,0,
2001-01-14, 02:38:00,VALID,916.06,VALID,0,VALID,97.8932,VALID,0,VALID,19.4204,VALID,112,VALID,0,
2001-01-14, 02:39:00,VALID,916.048,VALID,0,VALID,97.9008,VALID,0,VALID,19.4142,VALID,112,VALID,0,
2001-01-14, 02:40:00,VALID,916.04,VALID,0,VALID,97.9199,VALID,0,VALID,19.4075,VALID,113,VALID,0,
2001-01-14, 02:41:00,VALID,916.014,VALID,0,VALID,97.9339,VALID,-0.0339617,VALID,19.4144,VALID,113,VALID,0,
2001-01-14, 02:42:00,VALID,916.001,VALID,0,VALID,97.9771,VALID,0,VALID,19.4142,VALID,113,VALID,0,
2001-01-14, 02:43:00,VALID,916.002,VALID,0,VALID,98.0064,VALID,-0.0339617,VALID,19.3978,VALID,113,VALID,0,
2001-01-14, 02:44:00,VALID,916.005,VALID,0,VALID,98.0013,VALID,0,VALID,19.404,VALID,113,VALID,0,
2001-01-14, 02:45:00,VALID,916.005,VALID,0,VALID,97.9975,VALID,0,VALID,19.3978,VALID,113,VALID,0,
2001-01-14, 02:46:00,VALID,915.997,VALID,0,VALID,97.9937,VALID,0,VALID,19.3913,VALID,113,VALID,0,
2001-01-14, 02:47:00,VALID,915.981,VALID,0,VALID,98.0102,VALID,-0.0169808,VALID,19.3913,VALID,113,VALID,0,
2001-01-14, 02:48:00,VALID,915.971,VALID,0,VALID,98.0026,VALID,0,VALID,19.3881,VALID,112,VALID,0,
2001-01-14, 02:49:00,VALID,915.959,VALID,0,VALID,98.0216,VALID,0,VALID,19.3819,VALID,112,VALID,0,
2001-01-14, 02:50:00,VALID,915.944,VALID,0,VALID,98.0585,VALID,0,VALID,19.3816,VALID,112,VALID,0,
2001-01-14, 02:51:00,VALID,915.917,VALID,0,VALID,98.0572,VALID,0,VALID,19.3687,VALID,112,VALID,0,
2001-01-14, 02:52:00,VALID,915.922,VALID,0,VALID,98.0738,VALID,0,VALID,19.3652,VALID,107,VALID,0,
2001-01-14, 02:53:00,VALID,915.914,VALID,0,VALID,98.0674,VALID,0,VALID,19.3558,VALID,100,VALID,0,
2001-01-14, 02:54:00,VALID,915.899,VALID,0,VALID,98.0941,VALID,0.0169808,VALID,19.3558,VALID,79,VALID,0.0769231,
2001-01-14, 02:55:00,VALID,915.897,VALID,0,VALID,98.1081,VALID,0.0169808,VALID,19.3431,VALID,77,VALID,0.0802951,
2001-01-14, 02:56:00,VALID,915.898,VALID,0,VALID,98.1234,VALID,0,VALID,19.3367,VALID,60,VALID,0.323602,
2001-01-14, 02:57:00,VALID,915.909,VALID,0,VALID,98.1348,VALID,-0.0169808,VALID,19.3203,VALID,60,VALID,0.190378,
2001-01-14, 02:58:00,VALID,915.922,VALID,0,VALID,98.1564,VALID,0,VALID,19.3208,VALID,74,VALID,0.11986,
2001-01-14, 02:59:00,VALID,915.918,VALID,0,VALID,98.1539,VALID,-0.0339617,VALID,19.3108,VALID,85,VALID,0.221706,
2001-01-14, 03:00:00,VALID,915.918,VALID,0,VALID,98.1424,VALID,0,VALID,19.2979,VALID,89,VALID,0.0240709,
2001-01-14, 03:01:00,VALID,915.925,VALID,0,VALID,98.1386,VALID,0,VALID,19.2847,VALID,89,VALID,0,
2001-01-14, 03:02:00,VALID,915.942,VALID,0,VALID,98.1424,VALID,0,VALID,19.2977,VALID,89,VALID,0,
2001-01-14, 03:03:00,VALID,915.932,VALID,0,VALID,98.1577,VALID,0,VALID,19.2974,VALID,89,VALID,0,
2001-01-14, 03:04:00,VALID,915.919,VALID,0,VALID,98.1513,VALID,0,VALID,19.291,VALID,88,VALID,0.133018,
2001-01-14, 03:05:00,VALID,915.908,VALID,0,VALID,98.1437,VALID,-0.0169808,VALID,19.2917,VALID,88,VALID,0.261719,
2001-01-14, 03:06:00,VALID,915.909,VALID,0,VALID,98.1831,VALID,-0.0169808,VALID,19.285,VALID,88,VALID,0.00491071,
2001-01-14, 03:07:00,VALID,915.912,VALID,0,VALID,98.234,VALID,0,VALID,19.2907,VALID,88,VALID,0,
2001-01-14, 03:08:00,VALID,915.896,VALID,0,VALID,98.2518,VALID,0,VALID,19.2947,VALID,88,VALID,0,
2001-01-14, 03:09:00,VALID,915.878,VALID,0,VALID,98.2518,VALID,0,VALID,19.288,VALID,88,VALID,0,
2001-01-14, 03:10:00,VALID,915.848,VALID,0,VALID,98.2086,VALID,0,VALID,19.2815,VALID,88,VALID,0,
2001-01-14, 03:11:00,VALID,915.86,VALID,0,VALID,98.2365,VALID,-0.0169808,VALID,19.2748,VALID,88,VALID,0,
2001-01-14, 03:12:00,VALID,915.866,VALID,0,VALID,98.2518,VALID,-0.0339617,VALID,19.2914,VALID,85,VALID,0.0234375,
2001-01-14, 03:13:00,VALID,915.853,VALID,0,VALID,98.2671,VALID,0,VALID,19.2813,VALID,82,VALID,0.00205592,
2001-01-14, 03:14:00,VALID,915.845,VALID,0,VALID,98.2543,VALID,-0.0169808,VALID,19.285,VALID,78,VALID,0.373522,
2001-01-14, 03:15:00,VALID,915.832,VALID,0,VALID,98.1997,VALID,0,VALID,19.2713,VALID,86,VALID,0.00721154,
2001-01-14, 03:16:00,VALID,915.816,VALID,0,VALID,98.1653,VALID,-0.0169808,VALID,19.2718,VALID,86,VALID,0,
2001-01-14, 03:17:00,VALID,915.814,VALID,0,VALID,98.1869,VALID,-0.0169808,VALID,19.2788,VALID,85,VALID,0,
2001-01-14, 03:18:00,VALID,915.819,VALID,0,VALID,98.1869,VALID,-0.0169808,VALID,19.2624,VALID,83,VALID,0.332933,
2001-01-14, 03:19:00,VALID,915.818,VALID,0,VALID,98.1641,VALID,0,VALID,19.2691,VALID,52,VALID,0.404247,
2001-01-14, 03:20:00,VALID,915.827,VALID,0,VALID,98.1335,VALID,-0.0169808,VALID,19.2587,VALID,72,VALID,0.507612,
2001-01-14, 03:21:00,VALID,915.816,VALID,0,VALID,98.0433,VALID,-0.0509425,VALID,19.2633,VALID,80,VALID,0.344161,
2001-01-14, 03:22:00,VALID,915.796,VALID,0,VALID,97.972,VALID,-0.0849042,VALID,19.2606,VALID,86,VALID,0,
2001-01-14, 03:23:00,VALID,915.77,VALID,0,VALID,97.9377,VALID,-0.0849042,VALID,19.2474,VALID,75,VALID,0.217014,
2001-01-14, 03:24:00,VALID,915.763,VALID,0,VALID,97.883,VALID,-0.101885,VALID,19.2377,VALID,72,VALID,0.819311,
2001-01-14, 03:25:00,VALID,915.743,VALID,0,VALID,97.7203,VALID,-0.101885,VALID,19.2415,VALID,81,VALID,0.60625,
2001-01-14, 03:26:00,VALID,915.735,VALID,0,VALID,97.5168,VALID,-0.0849042,VALID,19.2539,VALID,22,VALID,0.496795,
2001-01-14, 03:27:00,VALID,915.737,VALID,0,VALID,97.3273,VALID,-0.0849042,VALID,19.283,VALID,43,VALID,0.217548,
2001-01-14, 03:28:00,VALID,915.734,VALID,0,VALID,97.0654,VALID,-0.0849042,VALID,19.2986,VALID,53,VALID,0.164063,
2001-01-14, 03:29:00,VALID,915.72,VALID,0,VALID,96.9153,VALID,-0.101885,VALID,19.325,VALID,53,VALID,0.00370066,
2001-01-14, 03:30:00,VALID,915.719,VALID,0,VALID,96.6636,VALID,-0.0849042,VALID,19.3317,VALID,78,VALID,0.42722,
2001-01-14, 03:31:00,VALID,915.716,VALID,0,VALID,96.5122,VALID,-0.0679233,VALID,19.3439,VALID,84,VALID,0.0696957,
2001-01-14, 03:32:00,VALID,915.703,VALID,0,VALID,96.441,VALID,-0.0679233,VALID,19.3443,VALID,84,VALID,0.256334,
2001-01-14, 03:33:00,VALID,915.72,VALID,0,VALID,96.2821,VALID,-0.101885,VALID,19.3314,VALID,85,VALID,0.192145,
2001-01-14, 03:34:00,VALID,915.721,VALID,0,VALID,96.2923,VALID,-0.101885,VALID,19.3118,VALID,85,VALID,0.21808,
2001-01-14, 03:35:00,VALID,915.721,VALID,0,VALID,96.2058,VALID,-0.101885,VALID,19.2929,VALID,85,VALID,0.52322,
2001-01-14, 03:36:00,VALID,915.722,VALID,0,VALID,96.1778,VALID,-0.0169808,VALID,19.2562,VALID,93,VALID,0.660056,
2001-01-14, 03:37:00,VALID,915.715,VALID,0,VALID,96.2261,VALID,0.0339617,VALID,19.2333,VALID,89,VALID,0.640214,
2001-01-14, 03:38:00,VALID,915.714,VALID,0,VALID,96.2579,VALID,0.0339617,VALID,19.207,VALID,80,VALID,0.720189,
2001-01-14, 03:39:00,VALID,915.739,VALID,0,VALID,96.2452,VALID,0,VALID,19.2268,VALID,77,VALID,0.494196,
2001-01-14, 03:40:00,VALID,915.746,VALID,0,VALID,96.2007,VALID,0,VALID,19.2333,VALID,81,VALID,0.573918,